Rock Springs, WY

11:49 PM MST on February 19, 2018 (GMT -0700)
Rock Springs-Sweetwater

Weather History for KRKS - February, 2013

Change the Weather History Date:

Tuesday, February 12, 2013

  Actual Average Record
Temperature  
Mean Temperature 17 °F 23 °F  
Max Temperature 26 °F 32 °F 56 °F (1954)
Min Temperature 7 °F 14 °F -14 °F (1948)
Degree Days  
Heating Degree Days 48 42  
Month to date heating degree days 453 513  
Since 1 July heating degree days 4822 5217  
Cooling Degree Days 0 0  
Month to date cooling degree days 0 0  
Year to date cooling degree days 0 0  
Moisture  
Dew Point 10 °F    
Average Humidity 73    
Maximum Humidity 84    
Minimum Humidity 62    
Precipitation  
Precipitation T in 0.02 in 0.45 in (1962)
Month to date precipitation T 0.21  
Year to date precipitation T 0.66  
Sea Level Pressure  
Sea Level Pressure 30.25 in    
Wind  
Wind Speed 23 mph (WSW)    
Max Wind Speed 32 mph    
Max Gust Speed 39 mph    
Visibility 10 miles    
Events Snow    
T = Trace of Precipitation, MM = Missing Value Source: NWS Daily Summary

Daily Weather History Graph

Daily Weather History Graph

Search for Another Location

Airport or City:

Trip Planner

Search our weather history database for the weather conditions in past years. The results will help you decide how hot, cold, wet, or windy it might be!

Date:

Astronomy

Feb. 12, 2013 Rise Set
Actual Time 7:15 AM MST 5:46 PM MST
Civil Twilight 6:46 AM MST 6:15 PM MST
Nautical Twilight 6:13 AM MST 6:47 PM MST
Astronomical Twilight 5:41 AM MST 7:19 PM MST
Moon 8:11 AM MST (2/12) 8:54 PM MST (2/12)
Length of Visible Light 11h 28m
Length of Day
10h 31m
Waxing Crescent, 8% of the Moon is Illuminated
Feb 12
Waxing Crescent
Feb 17
First Quarter
Feb 25
Full
Mar 4
Last Quarter
Mar 11
New

Hourly Weather History & Observations

Time (MST) Temp. Windchill Dew Point Humidity Pressure Visibility Wind Dir Wind Speed Gust Speed Precip Events Conditions
12:54 AM 8.1 °F -10.7 °F 1.0 °F 73% 30.27 in 10.0 mi SW 18.4 mph - N/A   Clear
1:54 AM 9.0 °F -10.0 °F 1.0 °F 70% 30.27 in 10.0 mi SW 19.6 mph - N/A   Partly Cloudy
2:54 AM 10.0 °F -9.1 °F 1.9 °F 70% 30.27 in 10.0 mi SW 20.7 mph - N/A   Clear
3:54 AM 10.0 °F -7.6 °F 1.9 °F 70% 30.28 in 10.0 mi WSW 17.3 mph - N/A   Clear
4:54 AM 10.9 °F -7.5 °F 3.0 °F 70% 30.27 in 10.0 mi WSW 19.6 mph - N/A   Clear
5:54 AM 10.0 °F -8.1 °F 3.0 °F 73% 30.31 in 10.0 mi WSW 18.4 mph - N/A   Clear
6:54 AM 10.0 °F -9.1 °F 3.9 °F 76% 30.34 in 10.0 mi WSW 20.7 mph - N/A   Clear
7:54 AM 10.9 °F -5.4 °F 5.0 °F 77% 30.35 in 10.0 mi WSW 15.0 mph - N/A   Clear
8:14 AM 12.2 °F -4.3 °F 6.8 °F 79% 30.10 in 10.0 mi WSW 16.1 mph - N/A   Mostly Cloudy
8:35 AM 12.2 °F -4.3 °F 6.8 °F 79% 30.10 in 10.0 mi WSW 16.1 mph 24.2 mph N/A   Scattered Clouds
8:54 AM 15.1 °F -2.5 °F 7.0 °F 70% 30.34 in 10.0 mi WSW 20.7 mph - N/A   Clear
9:22 AM 15.8 °F -1.9 °F 8.6 °F 73% 30.11 in 10.0 mi WSW 21.9 mph 28.8 mph N/A   Mostly Cloudy
9:54 AM 17.1 °F -0.3 °F 9.0 °F 71% 30.35 in 10.0 mi West 21.9 mph - N/A   Overcast
10:20 AM 17.6 °F -0.3 °F 10.4 °F 73% 30.11 in 7.0 mi WSW 24.2 mph - 0.00 in Snow Light Snow
10:54 AM 19.0 °F 1.0 °F 10.9 °F 71% 30.33 in 8.0 mi WSW 26.5 mph 33.4 mph 0.00 in Snow Light Snow
11:43 AM 21.2 °F 4.5 °F 12.2 °F 68% 30.10 in 10.0 mi West 24.2 mph - 0.00 in   Mostly Cloudy
11:54 AM 21.0 °F 4.3 °F 12.0 °F 68% 30.31 in 10.0 mi West 24.2 mph - 0.00 in   Overcast
12:27 PM 23.0 °F 6.6 °F 12.2 °F 63% 30.09 in 10.0 mi West 25.3 mph 32.2 mph N/A   Scattered Clouds
12:54 PM 24.1 °F 8.0 °F 14.0 °F 65% 30.29 in 10.0 mi West 25.3 mph 31.1 mph N/A   Clear
1:54 PM 25.0 °F 8.6 °F 15.1 °F 66% 30.26 in 10.0 mi West 27.6 mph 34.5 mph N/A   Clear
2:54 PM 25.0 °F 8.4 °F 15.1 °F 66% 30.24 in 10.0 mi West 28.8 mph 35.7 mph N/A   Scattered Clouds
3:54 PM 25.0 °F 8.9 °F 15.1 °F 66% 30.25 in 10.0 mi West 26.5 mph - N/A   Clear
4:54 PM 24.1 °F 8.3 °F 15.1 °F 69% 30.25 in 10.0 mi WSW 24.2 mph 32.2 mph N/A   Clear
5:54 PM 21.0 °F 3.9 °F 14.0 °F 74% 30.28 in 10.0 mi West 25.3 mph 32.2 mph N/A   Clear
6:54 PM 19.9 °F 1.8 °F 14.0 °F 78% 30.29 in 10.0 mi WSW 27.6 mph 35.7 mph N/A   Clear
7:54 PM 19.9 °F 3.9 °F 14.0 °F 78% 30.29 in 10.0 mi WSW 20.7 mph 31.1 mph N/A   Clear
8:54 PM 21.0 °F 3.6 °F 15.1 °F 78% 30.28 in 10.0 mi West 26.5 mph 31.1 mph N/A   Clear
9:54 PM 21.0 °F 3.3 °F 15.1 °F 78% 30.29 in 10.0 mi West 27.6 mph 33.4 mph N/A   Clear
10:54 PM 19.9 °F 2.5 °F 15.1 °F 81% 30.28 in 10.0 mi West 25.3 mph 31.1 mph N/A   Clear
11:54 PM 19.9 °F 3.2 °F 15.1 °F 81% 30.27 in 10.0 mi West 23.0 mph 32.2 mph N/A   Partly Cloudy